Regional Weather Roundup
Issued by NWS Jackson, KY

Home | Current Version | Previous Version | Text Only | Print | Product List | Glossary Off
Versions: 1 2 3 4 5 6 7 8 9 10 11 12 13 14 15 16 17 18 19 20 21 22 23 24 25 26 27 28 29 30 31 32 33 34 35 36 37 38 39 40 41 42 43 44 45 46 47 48 49 50

000
ASUS43 KJKL 231410
RWRJKL

EAST KENTUCKY HOURLY WEATHER ROUNDUP
NATIONAL WEATHER SERVICE JACKSON KY
1000 AM EDT SUN APR 23 2017

NOTE: "FAIR" INDICATES FEW OR NO CLOUDS BELOW 12,000 FEET WITH
NO SIGNIFICANT WEATHER AND/OR OBSTRUCTIONS TO VISIBILITY.

* THESE REPORTS ARE NOT UNDER NWS QUALITY CONTROL AND MAY NOT
  REPORT WEATHER SUCH AS PRECIPITATION AND FOG.

KYZ079-080-083-085-087-088-110-112-115-119-120-231500
...EASTERN KENTUCKY...

CITY           SKY/WX    TMP DP  RH WIND       PRES   REMARKS
JACKSON        LGT RAIN  46  45  96 VRB3      29.94S FOG
LONDON         RAIN      48  46  93 NE7       29.89F
SOMERSET*      LGT RAIN  46  46 100 E5        29.91S
MONTICELLO*    RAIN      49  48  97 N14G23    29.89F
WILLIAMSBURG*  CLOUDY    50  50 100 NE5       29.89R
MIDDLESBORO*   RAIN      52  52 100 CALM      29.89F
HARLAN APT*    CLOUDY    50  50 100 CALM      29.91R
PIKE CO APT*   RAIN      47  47 100 NE5       29.96R VSB 1/2
BIG SANDY APT* DRIZZLE   48  48 100 NE3       29.97S
MOREHEAD APT*  CLOUDY    48  39  71 VRB7G13   30.00R
ASHLAND*       CLOUDY    52  41  66 SE5       30.00F
$$

KYZ035-036-041-042-044-050-067-078-099-231500
...CENTRAL KENTUCKY...

CITY           SKY/WX    TMP DP  RH WIND       PRES   REMARKS
MT STERLING*   CLOUDY    46  41  81 E10G17    29.98S
FLEMING/MASON* CLOUDY    49  39  67 NE10      30.01R
DANVILLE*      DRIZZLE   45  43  93 NE9       29.94S
LEXINGTON      CLOUDY    48  38  68 NE13      29.96F
FRANKFORT      CLOUDY    49  36  61 NE10      29.97S
LOUISVILLE     PTSUNNY   53  39  59 NE16      29.98S
LEBANON*         N/A     46  41  81 NE10G18   29.94S
GLASGOW*       LGT RAIN N/A N/A N/A NE9       29.89R
BOWLING GREEN  RAIN      48  47  96 N13       29.90F FOG
$$

KYZ091>093-OHZ055-061-077-WVZ005-015-034-035-042-231500
...SOUTHERN OHIO/WEST VIRGINIA...

CITY           SKY/WX    TMP DP  RH WIND       PRES   REMARKS
COVINGTON      MOSUNNY   51  38  60 E16       30.03R
COLUMBUS       SUNNY     53  38  56 E9        30.06F
DAYTON         MOSUNNY   53  33  46 E15       30.07S
WILMINGTON     SUNNY     50  40  68 NE15G23   30.04S
HUNTINGTON     CLOUDY    50  41  71 NE7       30.00S
CHARLESTON     CLOUDY    52  43  71 NE8       30.00S
PINEVILLE*     DRIZZLE   52  46  81 MISG      30.04R
BECKLEY        CLOUDY    48  42  80 E14G24    29.99F
BLUEFIELD      LGT RAIN  43  41  93 VRB7      30.01R
LOGAN CO APT*    N/A     52  48  87 CALM      29.96S
$$

VAZ002-007-008-TNZ017-027-036-066-071-231500
...SOUTHWEST VIRGINIA/EAST TENNESSEE...

CITY           SKY/WX    TMP DP  RH WIND       PRES   REMARKS
WISE*          RAIN      50  50 100 CALM      29.95S
JONESVILLE*    LGT RAIN  54  54 100 NE5       29.91S
ABINGDON*      LGT RAIN  51  50  95 E17       29.94F
BRISTOL        RAIN      53  51  93 CALM      29.93R FOG
MORRISTOWN*    CLOUDY    55  55 100 E8G15     29.84S FOG
SEVIERVILLE*   CLOUDY    57  57 100 CALM      29.83R
KNOXVILLE      HVY RAIN  57  56  96 NE12      29.80F FOG
LAFOLLETTE*    CLOUDY    54  52  94 CALM      29.88S FOG
OAK RIDGE      RAIN      55  53  93 VRB3      29.84S FOG
CROSSVILLE     LGT RAIN  49  48  97 N5        29.83S FOG
NASHVILLE      LGT RAIN  52  50  93 N15       29.84F FOG
$$

...KEY TO REMARKS...
VSB - VISIBILITY IN MILES
WCI - WIND CHILL INDEX
HX  - HEAT INDEX

$$



USA.gov is the U.S. government's official web portal to all federal, state and local government web resources and services.